| time (UTC) | temp C | wind direction | speed KPH | gust KPH | rain 1hr cm | rain 24hr cm | rain mn cm | humidity % | barometer mb |
| 20260504214758 | 22 | 359 | 9.7 | 22.5 | 0.00 | 0.00 | 0.00 | 38 | 915.8 |
| 20260504214029 | 22 | 54 | 11.3 | 22.5 | 0.00 | 0.00 | 0.00 | 37 | 915.9 |
| 20260504213527 | 22 | 37 | 11.3 | 20.9 | 0.00 | 0.00 | 0.00 | 37 | 916.0 |
| 20260504213026 | 22 | 50 | 12.9 | 20.9 | 0.00 | 0.00 | 0.00 | 38 | 916.0 |
| 20260504212527 | 22 | 41 | 12.9 | 20.9 | 0.00 | 0.00 | 0.00 | 37 | 916.1 |
| 20260504212025 | 22 | 66 | 8.0 | 20.9 | 0.00 | 0.00 | 0.00 | 37 | 916.1 |
| 20260504211525 | 22 | 332 | 8.0 | 19.3 | 0.00 | 0.00 | 0.00 | 38 | 916.0 |
| 20260504211025 | 22 | 347 | 9.7 | 19.3 | 0.00 | 0.00 | 0.00 | 36 | 916.2 |
| 20260504210522 | 22 | 52 | 11.3 | 22.5 | 0.00 | 0.00 | 0.00 | 37 | 916.1 |
| 20260504210023 | 22 | 25 | 12.9 | 22.5 | 0.00 | 0.00 | 0.00 | 35 | 916.1 |
| 20260504205523 | 22 | 347 | 11.3 | 19.3 | 0.00 | 0.00 | 0.00 | 35 | 916.1 |
| 20260504205025 | 22 | 13 | 11.3 | 22.5 | 0.00 | 0.00 | 0.00 | 38 | 916.1 |
| 20260504204526 | 22 | 313 | 11.3 | 22.5 | 0.00 | 0.00 | 0.00 | 35 | 916.0 |
| 20260504204249 | 22 | 4 | 12.9 | 20.9 | 0.00 | 0.00 | 0.00 | 35 | 916.2 |
| 20260504203525 | 22 | 9 | 12.9 | 27.4 | 0.00 | 0.00 | 0.00 | 37 | 916.2 |
| 20260504203023 | 22 | 343 | 14.5 | 27.4 | 0.00 | 0.00 | 0.00 | 39 | 916.0 |
| 20260504202519 | 22 | 23 | 14.5 | 24.1 | 0.00 | 0.00 | 0.00 | 38 | 916.2 |
| 20260504202019 | 22 | 359 | 12.9 | 22.5 | 0.00 | 0.00 | 0.00 | 37 | 916.0 |
| 20260504201519 | 22 | 36 | 12.9 | 25.7 | 0.00 | 0.00 | 0.00 | 40 | 916.1 |
| 20260504201019 | 22 | 16 | 11.3 | 25.7 | 0.00 | 0.00 | 0.00 | 40 | 916.1 |
| 20260504200520 | 22 | 36 | 12.9 | 25.7 | 0.00 | 0.00 | 0.00 | 42 | 916.2 |
| 20260504200018 | 22 | 54 | 12.9 | 24.1 | 0.00 | 0.00 | 0.00 | 39 | 916.1 |
| 20260504195519 | 22 | 354 | 9.7 | 22.5 | 0.00 | 0.00 | 0.00 | 42 | 916.1 |
| 20260504195018 | 22 | 12 | 9.7 | 24.1 | 0.00 | 0.00 | 0.00 | 40 | 916.0 |
| 20260504194518 | 22 | 4 | 9.7 | 24.1 | 0.00 | 0.00 | 0.00 | 41 | 916.1 |
| 20260504194019 | 21 | 344 | 8.0 | 17.7 | 0.00 | 0.00 | 0.00 | 45 | 916.1 |
| 20260504193738 | 21 | 23 | 8.0 | 19.3 | 0.00 | 0.00 | 0.00 | 40 | 916.1 |
| 20260504193019 | 21 | 41 | 9.7 | 20.9 | 0.00 | 0.00 | 0.00 | 44 | 916.1 |
| 20260504192519 | 21 | 345 | 11.3 | 20.9 | 0.00 | 0.00 | 0.00 | 42 | 916.1 |
| 20260504192019 | 21 | 51 | 11.3 | 20.9 | 0.00 | 0.00 | 0.00 | 42 | 916.2 |
| 20260504191519 | 21 | 347 | 11.3 | 20.9 | 0.00 | 0.00 | 0.00 | 46 | 916.1 |
| 20260504191019 | 21 | 4 | 11.3 | 20.9 | 0.00 | 0.00 | 0.00 | 44 | 916.3 |
| 20260504190750 | 21 | 354 | 12.9 | 20.9 | 0.00 | 0.00 | 0.00 | 46 | 916.3 |
| 20260504190018 | 21 | 13 | 11.3 | 20.9 | 0.00 | 0.00 | 0.00 | 43 | 916.3 |
| 20260504185519 | 21 | 359 | 9.7 | 19.3 | 0.00 | 0.00 | 0.00 | 43 | 916.3 |
| 20260504185015 | 21 | 9 | 9.7 | 19.3 | 0.00 | 0.00 | 0.00 | 45 | 916.4 |
| 20260504184736 | 20 | 329 | 9.7 | 20.9 | 0.00 | 0.00 | 0.00 | 47 | 916.4 |
| 20260504184014 | 20 | 4 | 9.7 | 20.9 | 0.00 | 0.00 | 0.00 | 47 | 916.4 |
| 20260504183515 | 20 | 8 | 9.7 | 17.7 | 0.00 | 0.00 | 0.00 | 48 | 916.4 |
| 20260504183014 | 20 | 348 | 8.0 | 17.7 | 0.00 | 0.00 | 0.00 | 47 | 916.4 |
| 20260504182514 | 20 | 326 | 6.4 | 17.7 | 0.00 | 0.00 | 0.00 | 47 | 916.3 |
| 20260504182015 | 20 | 347 | 6.4 | 16.1 | 0.00 | 0.00 | 0.00 | 50 | 916.4 |
| 20260504181515 | 20 | 50 | 6.4 | 17.7 | 0.00 | 0.00 | 0.00 | 48 | 916.6 |
| 20260504181014 | 20 | 11 | 4.8 | 19.3 | 0.00 | 0.00 | 0.00 | 47 | 916.6 |
| 20260504180514 | 20 | 25 | 3.2 | 19.3 | 0.00 | 0.00 | 0.00 | 49 | 916.6 |
| 20260504180015 | 20 | 359 | 4.8 | 12.9 | 0.00 | 0.00 | 0.00 | 48 | 916.5 |
| 20260504175514 | 20 | 13 | 3.2 | 12.9 | 0.00 | 0.00 | 0.00 | 49 | 916.5 |
| 20260504175014 | 19 | 302 | 1.6 | 9.7 | 0.00 | 0.00 | 0.00 | 48 | 916.5 |
| 20260504174514 | 19 | 303 | 1.6 | 9.7 | 0.00 | 0.00 | 0.00 | 48 | 916.5 |
| 20260504174014 | 19 | 172 | 0.0 | 3.2 | 0.00 | 0.00 | 0.00 | 49 | 916.5 |
| 20260504173515 | 18 | 172 | 0.0 | 8.0 | 0.00 | 0.00 | 0.00 | 49 | 916.6 |
| 20260504173011 | 18 | 174 | 1.6 | 8.0 | 0.00 | 0.00 | 0.00 | 51 | 916.5 |
| 20260504172510 | 18 | 174 | 1.6 | 6.4 | 0.00 | 0.00 | 0.00 | 51 | 916.5 |
| 20260504172011 | 18 | 175 | 1.6 | 6.4 | 0.00 | 0.00 | 0.00 | 54 | 916.5 |
| 20260504171510 | 18 | 174 | 1.6 | 8.0 | 0.00 | 0.00 | 0.00 | 53 | 916.5 |
| 20260504171011 | 18 | 175 | 1.6 | 8.0 | 0.00 | 0.00 | 0.00 | 52 | 916.4 |
| 20260504170732 | 18 | 159 | 1.6 | 8.0 | 0.00 | 0.00 | 0.00 | 52 | 916.5 |
| 20260504150932 | 13 | 295 | 3.2 | 6.4 | 0.00 | 0.00 | 0.00 | 64 | 916.5 |
| 20260504150649 | 14 | 296 | 1.6 | 6.4 | 0.00 | 0.00 | 0.00 | 64 | 916.5 |
| 20260504141022 | 13 | 11 | 0.0 | 0.0 | 0.00 | 0.00 | 0.00 | 66 | 916.4 |
| 20260504140258 | 12 | 12 | 0.0 | 0.0 | 0.00 | 0.00 | 0.00 | 67 | 916.4 |
| 20260504130636 | 9 | 36 | 0.0 | 8.0 | 0.00 | 0.00 | 0.00 | 67 | 915.9 |
| 20260504130130 | 9 | 25 | 0.0 | 0.0 | 0.00 | 0.00 | 0.00 | 67 | 915.8 |
| 20260504110341 | 9 | 54 | 6.4 | 11.3 | 0.00 | 0.00 | 0.00 | 67 | 915.7 |
| 20260504100217 | 11 | 56 | 0.0 | 0.0 | 0.00 | 0.00 | 0.00 | 61 | 915.8 |
| 20260504081642 | 12 | 50 | 0.0 | 0.0 | 0.00 | 0.00 | 0.00 | 57 | 915.8 |
| 20260504081403 | 12 | 48 | 0.0 | 0.0 | 0.00 | 0.00 | 0.00 | 58 | 915.8 |
| 20260504080638 | 13 | 51 | 0.0 | 0.0 | 0.00 | 0.00 | 0.00 | 56 | 915.8 |
| 20260504080142 | 12 | 53 | 0.0 | 0.0 | 0.00 | 0.00 | 0.00 | 56 | 915.8 |
| 20260504070115 | 14 | 54 | 0.0 | 0.0 | 0.00 | 0.00 | 0.00 | 53 | 916.0 |
| 20260504060115 | 14 | 48 | 0.0 | 0.0 | 0.00 | 0.00 | 0.00 | 52 | 916.2 |
| 20260504050611 | 15 | 37 | 0.0 | 0.0 | 0.00 | 0.00 | 0.00 | 51 | 916.4 |
| 20260504050107 | 15 | 35 | 0.0 | 0.0 | 0.00 | 0.00 | 0.00 | 50 | 916.5 |
| 20260504045606 | 15 | 33 | 0.0 | 0.0 | 0.00 | 0.00 | 0.00 | 49 | 916.5 |
| 20260504045107 | 16 | 47 | 0.0 | 1.6 | 0.00 | 0.00 | 0.00 | 48 | 916.5 |
| 20260504044829 | 16 | 43 | 1.6 | 8.0 | 0.00 | 0.00 | 0.00 | 48 | 916.6 |
| 20260504044106 | 16 | 41 | 1.6 | 8.0 | 0.00 | 0.00 | 0.00 | 47 | 916.5 |
| 20260504043606 | 16 | 35 | 1.6 | 6.4 | 0.00 | 0.00 | 0.00 | 46 | 916.4 |
| 20260504043106 | 16 | 27 | 1.6 | 6.4 | 0.00 | 0.00 | 0.00 | 46 | 916.5 |
| 20260504042606 | 16 | 25 | 3.2 | 8.0 | 0.00 | 0.00 | 0.00 | 46 | 916.6 |
| 20260504042103 | 17 | 23 | 1.6 | 8.0 | 0.00 | 0.00 | 0.00 | 45 | 916.5 |
| 20260504041603 | 17 | 21 | 0.0 | 6.4 | 0.00 | 0.00 | 0.00 | 45 | 916.6 |
| 20260504041103 | 17 | 22 | 0.0 | 8.0 | 0.00 | 0.00 | 0.00 | 45 | 916.5 |
| 20260504040603 | 17 | 33 | 0.0 | 8.0 | 0.00 | 0.00 | 0.00 | 45 | 916.4 |
| 20260504040103 | 17 | 8 | 0.0 | 0.0 | 0.00 | 0.00 | 0.00 | 45 | 916.4 |
| 20260504035601 | 17 | 38 | 0.0 | 0.0 | 0.00 | 0.00 | 0.00 | 45 | 916.4 |
| 20260504035101 | 17 | 33 | 0.0 | 0.0 | 0.00 | 0.00 | 0.00 | 45 | 916.4 |
| 20260504034601 | 17 | 27 | 1.6 | 6.4 | 0.00 | 0.00 | 0.00 | 45 | 916.3 |
| 20260504034105 | 17 | 25 | 3.2 | 8.0 | 0.00 | 0.00 | 0.00 | 45 | 916.3 |
| 20260504033553 | 17 | 22 | 3.2 | 8.0 | 0.00 | 0.00 | 0.00 | 45 | 916.2 |
| 20260504033048 | 17 | 25 | 3.2 | 9.7 | 0.00 | 0.00 | 0.00 | 45 | 916.1 |
| 20260504032542 | 17 | 35 | 3.2 | 9.7 | 0.00 | 0.00 | 0.00 | 45 | 916.2 |
| 20260504032032 | 17 | 26 | 1.6 | 8.0 | 0.00 | 0.00 | 0.00 | 45 | 916.2 |
| 20260504031526 | 17 | 37 | 1.6 | 8.0 | 0.00 | 0.00 | 0.00 | 45 | 916.2 |
| 20260504031021 | 17 | 37 | 3.2 | 8.0 | 0.00 | 0.00 | 0.00 | 46 | 916.3 |
| 20260504030734 | 17 | 42 | 3.2 | 8.0 | 0.00 | 0.00 | 0.00 | 47 | 916.3 |
| 20260504030004 | 18 | 24 | 3.2 | 6.4 | 0.00 | 0.00 | 0.00 | 46 | 916.2 |
| 20260504025458 | 19 | 16 | 1.6 | 6.4 | 0.00 | 0.00 | 0.00 | 43 | 916.1 |
| 20260504024949 | 20 | 317 | 0.0 | 0.0 | 0.00 | 0.00 | 0.00 | 40 | 916.1 |
| 20260504024442 | 20 | 317 | 0.0 | 0.0 | 0.00 | 0.00 | 0.00 | 39 | 916.1 |
| 20260504023936 | 21 | 316 | 0.0 | 0.0 | 0.00 | 0.00 | 0.00 | 39 | 916.2 |
| 20260504023427 | 21 | 316 | 0.0 | 0.0 | 0.00 | 0.00 | 0.00 | 39 | 916.2 |
| 20260504023141 | 21 | 317 | 0.0 | 0.0 | 0.00 | 0.00 | 0.00 | 40 | 916.2 |
| 20260504022855 | 22 | 317 | 0.0 | 0.0 | 0.00 | 0.00 | 0.00 | 39 | 916.3 |
| 20260504021903 | 22 | 316 | 0.0 | 0.0 | 0.00 | 0.00 | 0.00 | 40 | 916.2 |
| 20260504021358 | 22 | 317 | 0.0 | 0.0 | 0.00 | 0.00 | 0.00 | 38 | 916.3 |
| 20260504020853 | 22 | 317 | 0.0 | 1.6 | 0.00 | 0.00 | 0.00 | 38 | 916.4 |
| 20260504020600 | 22 | 316 | 0.0 | 3.2 | 0.00 | 0.00 | 0.00 | 37 | 916.5 |
| 20260504015836 | 23 | 316 | 0.0 | 8.0 | 0.00 | 0.00 | 0.00 | 35 | 916.4 |
| 20260504015330 | 23 | 317 | 3.2 | 8.0 | 0.00 | 0.00 | 0.00 | 33 | 916.5 |
| 20260504014820 | 23 | 305 | 3.2 | 9.7 | 0.00 | 0.00 | 0.00 | 33 | 916.6 |
| 20260504014315 | 23 | 318 | 0.0 | 8.0 | 0.00 | 0.00 | 0.00 | 33 | 916.6 |
| 20260504014248 | 23 | 347 | 1.6 | 12.9 | 0.00 | 0.00 | 0.00 | 33 | 916.6 |
| 20260504013258 | 23 | 347 | 1.6 | 12.9 | 0.00 | 0.00 | 0.00 | 32 | 916.6 |
| 20260504012753 | 23 | 343 | 4.8 | 16.1 | 0.00 | 0.00 | 0.00 | 35 | 916.7 |
| 20260504012503 | 23 | 324 | 8.0 | 16.1 | 0.00 | 0.00 | 0.00 | 35 | 916.7 |
| 20260504011736 | 23 | 298 | 6.4 | 16.1 | 0.00 | 0.00 | 0.00 | 34 | 916.7 |
| 20260504011230 | 23 | 312 | 3.2 | 12.9 | 0.00 | 0.00 | 0.00 | 32 | 916.8 |
| 20260504010737 | 23 | 305 | 3.2 | 12.9 | 0.00 | 0.00 | 0.00 | 31 | 916.8 |
| 20260504010214 | 23 | 305 | 4.8 | 12.9 | 0.00 | 0.00 | 0.00 | 31 | 916.9 |
| 20260504005943 | 23 | 324 | 6.4 | 16.1 | 0.00 | 0.00 | 0.00 | 31 | 917.0 |
| 20260504005203 | 23 | 318 | 4.8 | 16.1 | 0.00 | 0.00 | 0.00 | 31 | 917.0 |
| 20260504004653 | 23 | 324 | 6.4 | 16.1 | 0.00 | 0.00 | 0.00 | 32 | 917.0 |
| 20260504004146 | 23 | 305 | 6.4 | 16.1 | 0.00 | 0.00 | 0.00 | 32 | 917.0 |
| 20260504003640 | 24 | 295 | 3.2 | 11.3 | 0.00 | 0.00 | 0.00 | 32 | 917.0 |
| 20260504003130 | 24 | 281 | 3.2 | 16.1 | 0.00 | 0.00 | 0.00 | 34 | 917.0 |
| 20260504002624 | 24 | 289 | 3.2 | 16.1 | 0.00 | 0.00 | 0.00 | 35 | 917.1 |
| 20260504002118 | 24 | 291 | 3.2 | 17.7 | 0.00 | 0.00 | 0.00 | 34 | 917.2 |
| 20260504002053 | 23 | 287 | 4.8 | 17.7 | 0.00 | 0.00 | 0.00 | 35 | 917.2 |
| 20260504001102 | 23 | 287 | 8.0 | 17.7 | 0.00 | 0.00 | 0.00 | 32 | 917.2 |
| 20260504000606 | 24 | 302 | 6.4 | 17.7 | 0.00 | 0.00 | 0.00 | 31 | 917.4 |
| 20260504000059 | 24 | 295 | 4.8 | 16.1 | 0.00 | 0.00 | 0.00 | 30 | 917.4 |
| 20260504000032 | 24 | 289 | 3.2 | 16.1 | 0.00 | 0.00 | 0.00 | 33 | 917.4 |
| 20260503235034 | 23 | 287 | 1.6 | 14.5 | 0.00 | 0.00 | 0.00 | 32 | 917.4 |
| 20260503235007 | 23 | 243 | 6.4 | 16.1 | 0.00 | 0.00 | 0.00 | 30 | 917.5 |
| 20260503234636 | 24 | 293 | 6.4 | 16.1 | 0.00 | 0.00 | 0.00 | 29 | 917.6 |
| 20260503233512 | 24 | 288 | 4.8 | 16.1 | 0.00 | 0.00 | 0.00 | 34 | 917.5 |
| 20260503233222 | 24 | 283 | 4.8 | 16.1 | 0.00 | 0.00 | 0.00 | 31 | 917.7 |
| 20260503232457 | 24 | 293 | 3.2 | 16.1 | 0.00 | 0.00 | 0.00 | 31 | 917.7 |
| 20260503231949 | 24 | 296 | 1.6 | 11.3 | 0.00 | 0.00 | 0.00 | 32 | 917.8 |
| 20260503231530 | 24 | 278 | 1.6 | 11.3 | 0.00 | 0.00 | 0.00 | 34 | 917.7 |
| 20260503230911 | 23 | 330 | 4.8 | 17.7 | 0.00 | 0.00 | 0.00 | 30 | 917.8 |
| 20260503225918 | 23 | 289 | 3.2 | 17.7 | 0.00 | 0.00 | 0.00 | 30 | 917.8 |
| 20260503225411 | 23 | 281 | 4.8 | 16.1 | 0.00 | 0.00 | 0.00 | 31 | 917.9 |
| 20260503225125 | 23 | 289 | 4.8 | 16.1 | 0.00 | 0.00 | 0.00 | 33 | 918.0 |
| 20260503224356 | 24 | 286 | 1.6 | 16.1 | 0.00 | 0.00 | 0.00 | 35 | 918.1 |
| 20260503223850 | 23 | 291 | 3.2 | 16.1 | 0.00 | 0.00 | 0.00 | 32 | 918.2 |
| 20260503223344 | 23 | 299 | 4.8 | 16.1 | 0.00 | 0.00 | 0.00 | 27 | 918.3 |
| 20260503222834 | 23 | 223 | 3.2 | 16.1 | 0.00 | 0.00 | 0.00 | 32 | 918.4 |
| 20260503222328 | 23 | 274 | 4.8 | 17.7 | 0.00 | 0.00 | 0.00 | 31 | 918.5 |
| 20260503221822 | 23 | 284 | 4.8 | 17.7 | 0.00 | 0.00 | 0.00 | 32 | 918.5 |
| 20260503221312 | 24 | 291 | 3.2 | 17.7 | 0.00 | 0.00 | 0.00 | 30 | 918.5 |
| 20260503221033 | 23 | 282 | 3.2 | 12.9 | 0.00 | 0.00 | 0.00 | 35 | 918.6 |
| 20260503220301 | 23 | 291 | 3.2 | 19.3 | 0.00 | 0.00 | 0.00 | 34 | 918.7 |
| 20260503215750 | 23 | 242 | 3.2 | 19.3 | 0.00 | 0.00 | 0.00 | 33 | 918.8 |
| 20260503215244 | 23 | 292 | 1.6 | 11.3 | 0.00 | 0.00 | 0.00 | 31 | 918.9 |